sat.trackr.live / text

‹ back to catalog

ONEWEB-0607

NORAD 54671 · 2022-166AF

PAYLOAD ACTIVE UNKNOWN

§ Identity

Operator
Country
UK
Launch date
2022-12-08
Launch site
AFETR
Launch vehicle
Mass (kg)
RCS (m²)

Purposes: comms

External: N2YO · Heavens-Above · Gunter

§ Orbital elements

Epoch: 2026-09-20T03:00:13.861152Z

Period
108.94 min
Inclination
87.9290°
Eccentricity
0.0002000
Mean motion
13.21825436 rev/d
Perigee alt
1,176.2 km
Apogee alt
1,179.3 km
Semi-major
7,555.9 km
B*
-1.8710e-4
RAAN
225.0784°
Arg perigee
78.8140°
Mean anomaly
281.3219°
Rev number
18,408

§ Raw data

ONEWEB-06071 54671U 22166AF  26263.12516043 -.00000064  00000+0 -18710-3 0  99922 54671  87.9290 225.0784 0002000  78.8140 281.3219 13.21825436184080

JSON: /api/v1/satellites/54671 · /tle

For live sub-satellite position, see the globe view (requires WebGL).

§ Visibility from observer

Set your observer location to see the next 7 days of passes ≥ 10°. The values pass through the URL so the page stays shareable.

No JS? Fill the form by hand. The geolocation button needs JavaScript.